Tracking 31027 objects as of 19-Jul-2025
HD Live streaming from Space Station
objects crossing your sky now

DELTA 1 DEB

Track DELTA 1 DEB now!
10-day predictions


NORAD ID: 21548
Int'l Code: 1975-052HC
Perigee: 1,097.0 km
Apogee: 1,475.3 km
Inclination: 99.8 °
Period: 111.1 minutes
Semi major axis: 7657 km
RCS: 0.0496 m2 (small)
Launch date: June 12, 1975
Source: United States (US)
Launch site: AIR FORCE WESTERN TEST RANGE (AFWTR)

Note: This is SATELLITE DEBRIS
Your satellite tracking list
STARLINK-31611
Track 1 satellite(s)




NASA's NSSDC Master Catalog

Two Line Element Set (TLE):
1 21548U 75052HC  25199.27992512 -.00000393  00000-0 -10951-2 0  9997
2 21548  99.8148 309.4433 0247034  60.4205   3.0390 12.95698190616215
Source of the keplerian elements: AFSPC